Weather History for KIGX - October, 2013

Change the Weather History Date:

Saturday, October 5, 2013

  Actual Average Record
Temperature  
Mean Temperature 76 °F -  
Max Temperature 89 °F 76 °F 97 °F (1954)
Min Temperature 63 °F 49 °F 31 °F (1974)
Cooling Degree Days 10    
Growing Degree Days 26 (Base 50)    
Moisture  
Dew Point 63 °F    
Average Humidity 72    
Maximum Humidity 97    
Minimum Humidity 39    
Precipitation  
Precipitation 0.00 in - - ()
Sea Level Pressure  
Sea Level Pressure 30.08 in    
Wind  
Wind Speed 1 mph (South)    
Max Wind Speed 6 mph    
Max Gust Speed -    
Visibility 9 miles    
Events      
Averages and records for this station are not official NWS values.
T = Trace of Precipitation, MM = Missing Value Source: NWS Daily Summary

Daily Weather History Graph

Daily Weather History Graph

Search for Another Location

Airport or City:

Trip Planner

Search our weather history database for the weather conditions in past years. The results will help you decide how hot, cold, wet, or windy it might be!

Date:

Astronomy

Oct. 05, 2013 Rise Set
Actual Time 7:14 AM EDT 6:53 PM EDT
Civil Twilight 6:49 AM EDT 7:19 PM EDT
Nautical Twilight 6:19 AM EDT 7:49 PM EDT
Astronomical Twilight 5:49 AM EDT 8:18 PM EDT
Moon 7:49 AM EDT (10/5) 7:14 PM EDT (10/5)
Length of Visible Light 12h 30m
Length of Day
11h 39m
New Moon, 0% of the Moon is Illuminated
Oct 5
New Moon
Oct 11
First Quarter
Oct 18
Full
Oct 26
Last Quarter
Nov 3
New

Hourly Weather History & Observations

Time (EDT) Temp. Heat Index Dew Point Humidity Pressure Visibility Wind Dir Wind Speed Gust Speed Precip Events Conditions
12:56 AM 66.0 °F - 63.0 °F 90% 30.09 in 10.0 mi Calm Calm - N/A   Clear
1:56 AM 64.9 °F - 63.0 °F 93% 30.09 in 9.0 mi Calm Calm - N/A   Clear
2:56 AM 64.0 °F - 62.1 °F 93% 30.09 in 7.0 mi Calm Calm - N/A   Clear
3:56 AM 63.0 °F - 62.1 °F 97% 30.08 in 5.0 mi Calm Calm - N/A   Clear
4:56 AM 63.0 °F - 61.0 °F 93% 30.09 in 9.0 mi Calm Calm - N/A   Clear
5:56 AM 63.0 °F - 61.0 °F 93% 30.10 in 6.0 mi Calm Calm - N/A   Clear
6:56 AM 63.0 °F - 61.0 °F 93% 30.11 in 7.0 mi Calm Calm - N/A   Clear
7:56 AM 63.0 °F - 61.0 °F 93% 30.12 in 7.0 mi North - - N/A   Clear
8:56 AM 70.0 °F - 64.9 °F 84% 30.12 in 10.0 mi Calm Calm - N/A   Clear
9:56 AM 75.9 °F - 66.0 °F 71% 30.12 in 10.0 mi Variable 3.5 mph - N/A   Clear
10:56 AM 81.0 °F 83.0 °F 66.0 °F 60% 30.12 in 10.0 mi Calm Calm - N/A   Clear
11:56 AM 82.9 °F 84.6 °F 64.9 °F 54% 30.11 in 10.0 mi SW 5.8 mph - N/A   Clear
12:56 PM 87.1 °F 88.3 °F 64.0 °F 46% 30.09 in 10.0 mi East 3.5 mph - N/A   Clear
1:56 PM 87.1 °F 87.5 °F 62.1 °F 43% 30.06 in 10.0 mi Variable 4.6 mph - N/A   Mostly Cloudy
2:56 PM 84.9 °F 84.8 °F 60.1 °F 43% 30.06 in 10.0 mi Variable 4.6 mph - N/A   Mostly Cloudy
3:56 PM 88.0 °F 87.6 °F 60.1 °F 39% 30.04 in 10.0 mi Calm Calm - N/A   Partly Cloudy
4:56 PM 87.1 °F 87.0 °F 61.0 °F 41% 30.04 in 10.0 mi Variable 3.5 mph - N/A   Partly Cloudy
5:56 PM 82.9 °F 84.0 °F 63.0 °F 51% 30.04 in 10.0 mi SW 3.5 mph - N/A   Clear
6:56 PM 77.0 °F - 64.9 °F 66% 30.04 in 10.0 mi Calm Calm - N/A   Clear
7:56 PM 73.9 °F - 64.9 °F 73% 30.05 in 10.0 mi Calm Calm - N/A   Clear
8:56 PM 72.0 °F - 64.9 °F 78% 30.06 in 10.0 mi Calm Calm - N/A   Clear
9:56 PM 70.0 °F - 64.0 °F 81% 30.07 in 10.0 mi Calm Calm - N/A   Clear
10:56 PM 69.1 °F - 64.0 °F 84% 30.07 in 10.0 mi Calm Calm - N/A   Clear
11:56 PM 70.0 °F - 63.0 °F 78% 30.06 in 10.0 mi Calm Calm - N/A   Clear